GW4074 Weather Reports


Display with metric or nautical units.
time (UTC)temp
F
wind
direction
speed
MPH
gust
MPH
rain 1hr
in
rain 24hr
in
rain mn
in
humidity
%
barometer
mb
20260502232031 74 162 4.0 5.0 0.00 0.00 0.00 39 1015.1
20260502231528 73 255 3.0 4.0 0.00 0.00 0.00 39 1015.0
20260502231026 72 121 0.0 4.0 0.00 0.00 0.00 40 1015.2
20260502230524 72 5 3.0 7.0 0.00 0.00 0.00 41 1015.3
20260502230023 72 260 2.0 7.0 0.00 0.00 0.00 41 1015.3
20260502225522 72 336 4.0 5.0 0.00 0.00 0.00 40 1015.6
20260502225020 72 274 1.0 4.0 0.00 0.00 0.00 42 1015.3
20260502224516 71 302 2.0 5.0 0.00 0.00 0.00 43 1015.5
20260502224013 70 289 2.0 6.0 0.00 0.00 0.00 44 1015.6
20260502223511 69 340 6.0 10.0 0.00 0.00 0.00 45 1015.8
20260502223009 70 199 4.0 7.0 0.00 0.00 0.00 44 1015.8
20260502222506 70 325 4.0 9.0 0.00 0.00 0.00 44 1015.8
20260502222002 71 322 2.0 6.0 0.00 0.00 0.00 44 1015.7
20260502221458 70 249 2.0 8.0 0.00 0.00 0.00 45 1015.7
20260502220955 69 9 8.0 10.0 0.00 0.00 0.00 46 1015.8
20260502220451 70 354 5.0 9.0 0.00 0.00 0.00 46 1016.1
20260502215948 70 355 4.0 7.0 0.00 0.00 0.00 46 1016.0
20260502215445 69 349 7.0 11.0 0.00 0.00 0.00 47 1015.8
20260502214942 70 314 6.0 9.0 0.00 0.00 0.00 46 1015.8
20260502214439 69 318 1.0 9.0 0.00 0.00 0.00 47 1015.8
20260502213936 69 322 6.0 7.0 0.00 0.00 0.00 48 1015.9
20260502213432 69 324 9.0 11.0 0.00 0.00 0.00 48 1015.8
20260502212931 69 49 2.0 9.0 0.00 0.00 0.00 48 1015.7
20260502212430 69 334 6.0 9.0 0.00 0.00 0.00 49 1015.8
20260502211927 69 311 5.0 9.0 0.00 0.00 0.00 49 1016.0
20260502211422 68 323 4.0 10.0 0.00 0.00 0.00 49 1015.9
20260502210920 69 351 6.0 8.0 0.00 0.00 0.00 50 1016.0
20260502210417 68 28 8.0 11.0 0.00 0.00 0.00 50 1016.0
20260502205914 68 351 3.0 10.0 0.00 0.00 0.00 51 1015.8
20260502205410 68 3 4.0 11.0 0.00 0.00 0.00 51 1016.1
20260502204907 68 347 10.0 11.0 0.00 0.00 0.00 51 1016.0
20260502204404 68 9 6.0 10.0 0.00 0.00 0.00 51 1016.1
20260502203902 68 316 4.0 10.0 0.00 0.00 0.00 51 1016.0
20260502203359 68 338 2.0 12.0 0.00 0.00 0.00 52 1016.0
20260502202854 68 342 4.0 9.0 0.00 0.00 0.00 53 1016.3
20260502202352 67 353 9.0 11.0 0.00 0.00 0.00 53 1016.3
20260502201850 67 348 5.0 9.0 0.00 0.00 0.00 53 1016.3
20260502201346 68 4 6.0 9.0 0.00 0.00 0.00 53 1016.3
20260502200842 67 343 5.0 9.0 0.00 0.00 0.00 54 1016.4
20260502200338 67 354 6.0 11.0 0.00 0.00 0.00 54 1016.6
20260502195837 67 344 4.0 9.0 0.00 0.00 0.00 54 1016.6
20260502195333 66 343 6.0 12.0 0.00 0.00 0.00 56 1016.7
20260502194830 67 247 4.0 8.0 0.00 0.00 0.00 53 1016.6
20260502194327 67 353 3.0 8.0 0.00 0.00 0.00 55 1016.6
20260502193822 66 19 6.0 9.0 0.00 0.00 0.00 56 1016.5
20260502193320 66 288 3.0 8.0 0.00 0.00 0.00 55 1016.7
20260502192815 66 343 5.0 9.0 0.00 0.00 0.00 55 1016.6
20260502192313 66 22 6.0 13.0 0.00 0.00 0.00 57 1016.7
20260502191810 66 346 7.0 14.0 0.00 0.00 0.00 56 1016.6
20260502191308 66 359 4.0 10.0 0.00 0.00 0.00 56 1016.8
20260502190805 66 335 3.0 8.0 0.00 0.00 0.00 56 1016.9
20260502190302 66 203 2.0 8.0 0.00 0.00 0.00 58 1017.0
20260502185757 66 325 5.0 7.0 0.00 0.00 0.00 58 1016.9
20260502185253 67 357 6.0 10.0 0.00 0.00 0.00 56 1017.0
20260502184750 66 330 3.0 7.0 0.00 0.00 0.00 58 1016.8
20260502184246 65 321 3.0 7.0 0.00 0.00 0.00 59 1017.0
20260502183743 65 331 4.0 9.0 0.00 0.00 0.00 58 1016.8
20260502183239 65 326 5.0 9.0 0.00 0.00 0.00 60 1016.9
20260502182734 65 4 3.0 8.0 0.00 0.00 0.00 60 1016.9
20260502182230 65 278 1.0 9.0 0.00 0.00 0.00 59 1017.2
20260502181726 65 322 4.0 6.0 0.00 0.00 0.00 58 1016.9
20260502181220 65 22 7.0 8.0 0.00 0.00 0.00 59 1017.0
20260502180717 66 79 2.0 5.0 0.00 0.00 0.00 56 1017.1
20260502180214 64 57 3.0 9.0 0.00 0.00 0.00 59 1016.8
20260502170132 60 4 6.0 6.0 0.00 0.00 0.00 68 1017.6
20260502164119 60 17 4.0 6.0 0.00 0.00 0.00 68 1017.5
20260502163615 60 55 2.0 6.0 0.00 0.00 0.00 68 1017.4
20260502163111 59 323 2.0 5.0 0.00 0.00 0.00 70 1017.5
20260502162608 60 14 2.0 7.0 0.00 0.00 0.00 67 1017.5
20260502162106 60 122 1.0 3.0 0.00 0.00 0.00 68 1017.5
20260502161603 60 277 0.0 4.0 0.00 0.00 0.00 68 1017.4
20260502161100 60 3 3.0 5.0 0.00 0.00 0.00 66 1017.3
20260502160558 60 68 3.0 5.0 0.00 0.00 0.00 66 1017.1
20260502152010 59 80 1.0 3.0 0.00 0.00 0.00 69 1017.5
20260502151506 59 357 1.0 6.0 0.00 0.00 0.00 68 1017.5
20260502151004 59 126 5.0 6.0 0.00 0.00 0.00 68 1017.2
20260502150501 59 99 2.0 4.0 0.00 0.00 0.00 68 1017.2
20260502130346 55 54 2.0 4.0 0.00 0.00 0.00 72 1016.8
20260502123329 50 24 3.0 4.0 0.00 0.00 0.00 85 1017.0
20260502122826 51 18 2.0 3.0 0.00 0.00 0.00 82 1016.9
20260502122321 52 14 2.0 2.0 0.00 0.00 0.00 78 1017.0
20260502121821 53 46 2.0 3.0 0.00 0.00 0.00 76 1016.9
20260502121317 54 113 2.0 2.0 0.00 0.00 0.00 71 1016.8
20260502120814 54 9 2.0 2.0 0.00 0.00 0.00 69 1017.0
20260502120311 53 23 3.0 3.0 0.00 0.00 0.00 71 1016.9
20260502115809 54 356 2.0 2.0 0.00 0.00 0.00 70 1017.0
20260502115306 55 13 1.0 2.0 0.00 0.00 0.00 68 1016.8
20260502114801 56 119 3.0 3.0 0.00 0.00 0.00 64 1017.0
20260502114258 56 87 1.0 2.0 0.00 0.00 0.00 65 1016.8
20260502113755 55 83 0.0 2.0 0.00 0.00 0.00 66 1016.8
20260502113253 54 43 2.0 3.0 0.00 0.00 0.00 69 1016.6
20260502112751 54 20 2.0 3.0 0.00 0.00 0.00 69 1016.5
20260502112248 54 24 2.0 2.0 0.00 0.00 0.00 69 1016.5
20260502111745 54 35 2.0 3.0 0.00 0.00 0.00 70 1016.4
20260502111243 54 42 2.0 2.0 0.00 0.00 0.00 68 1016.6
20260502110740 54 110 2.0 2.0 0.00 0.00 0.00 70 1016.5
20260502110238 53 51 2.0 3.0 0.00 0.00 0.00 72 1016.3
20260502105736 52 32 2.0 3.0 0.00 0.00 0.00 76 1016.8
20260502105232 51 11 3.0 3.0 0.00 0.00 0.00 81 1016.5
20260502104730 52 7 2.0 2.0 0.00 0.00 0.00 78 1016.7
20260502104227 53 139 3.0 3.0 0.00 0.00 0.00 79 1016.6
20260502103725 53 120 3.0 3.0 0.00 0.00 0.00 73 1016.7
20260502103222 53 111 2.0 2.0 0.00 0.00 0.00 73 1016.8
20260502102719 54 67 2.0 2.0 0.00 0.00 0.00 74 1016.6
20260502102215 54 144 2.0 2.0 0.00 0.00 0.00 70 1016.7
20260502101714 54 100 2.0 2.0 0.00 0.00 0.00 70 1016.5
20260502101212 54 25 1.0 1.0 0.00 0.00 0.00 72 1016.6
20260502100709 53 64 2.0 2.0 0.00 0.00 0.00 74 1016.5
20260502100208 54 32 2.0 2.0 0.00 0.00 0.00 75 1016.6
20260502091142 57 65 1.0 1.0 0.00 0.00 0.00 66 1016.6
20260502090638 57 89 0.0 1.0 0.00 0.00 0.00 67 1016.6
20260502090136 57 53 1.0 1.0 0.00 0.00 0.00 66 1016.5
20260502071533 56 44 1.0 2.0 0.00 0.00 0.00 77 1016.5
20260502071031 55 130 0.0 1.0 0.00 0.00 0.00 79 1016.5
20260502070529 54 119 0.0 2.0 0.00 0.00 0.00 83 1016.5
20260502070027 54 162 3.0 4.0 0.00 0.00 0.00 83 1016.5
20260502065526 54 147 2.0 3.0 0.00 0.00 0.00 82 1016.4
20260502065023 53 108 1.0 2.0 0.00 0.00 0.00 84 1016.4
20260502064521 53 95 2.0 2.0 0.00 0.00 0.00 86 1016.3
20260502064018 53 26 2.0 3.0 0.00 0.00 0.00 85 1016.3
20260502063515 54 136 2.0 3.0 0.00 0.00 0.00 84 1016.5
20260502063013 54 134 2.0 2.0 0.00 0.00 0.00 83 1016.3
20260502062510 55 113 0.0 3.0 0.00 0.00 0.00 82 1016.2
20260502062009 55 145 3.0 3.0 0.00 0.00 0.00 81 1016.2
20260502061506 55 134 2.0 2.0 0.00 0.00 0.00 81 1016.2
20260502061003 55 117 2.0 3.0 0.00 0.00 0.00 80 1016.3
20260502060457 56 137 2.0 2.0 0.00 0.00 0.00 80 1016.1
20260502055954 56 150 3.0 3.0 0.00 0.00 0.00 79 1016.2
20260502055452 55 87 1.0 1.0 0.00 0.00 0.00 80 1016.2
20260502054946 55 118 2.0 2.0 0.00 0.00 0.00 81 1016.2
20260502054444 55 157 2.0 3.0 0.00 0.00 0.00 80 1016.2
20260502053941 56 131 2.0 2.0 0.00 0.00 0.00 78 1016.0
20260502053437 57 89 0.0 3.0 0.00 0.00 0.00 78 1016.0
20260502052935 57 135 2.0 4.0 0.00 0.00 0.00 76 1016.1
20260502052433 57 116 3.0 3.0 0.00 0.00 0.00 76 1016.1
20260502051932 57 107 3.0 4.0 0.00 0.00 0.00 75 1016.0
20260502051429 58 119 3.0 3.0 0.00 0.00 0.00 73 1015.9
20260502050926 60 145 0.0 4.0 0.00 0.00 0.00 69 1015.8
20260502050423 60 94 1.0 2.0 0.00 0.00 0.00 68 1015.7
20260502045920 60 120 2.0 2.0 0.00 0.00 0.00 68 1016.0
20260502045416 61 89 0.0 2.0 0.00 0.00 0.00 66 1015.9
20260502044914 60 269 0.0 3.0 0.00 0.00 0.00 67 1015.9
20260502044409 60 138 2.0 2.0 0.00 0.00 0.00 67 1015.8
20260502043906 60 126 1.0 2.0 0.00 0.00 0.00 67 1015.8
20260502043404 59 145 2.0 3.0 0.00 0.00 0.00 69 1015.6
20260502042903 60 126 4.0 4.0 0.00 0.00 0.00 69 1015.8
20260502042401 59 116 3.0 5.0 0.00 0.00 0.00 70 1015.7
20260502041858 59 110 3.0 4.0 0.00 0.00 0.00 70 1015.7
20260502041355 60 230 0.0 2.0 0.00 0.00 0.00 68 1015.7
20260502040853 59 136 3.0 3.0 0.00 0.00 0.00 70 1015.6
20260502040349 60 119 4.0 4.0 0.00 0.00 0.00 70 1015.6
20260502035845 61 153 2.0 2.0 0.00 0.00 0.00 65 1015.5
20260502035342 61 167 3.0 4.0 0.00 0.00 0.00 65 1015.5
20260502034839 61 55 0.0 2.0 0.00 0.00 0.00 65 1015.4
20260502034338 61 129 0.0 1.0 0.00 0.00 0.00 65 1015.5
20260502033836 61 28 1.0 3.0 0.00 0.00 0.00 66 1015.3
20260502033333 62 85 2.0 2.0 0.00 0.00 0.00 65 1015.4
20260502032830 62 130 4.0 4.0 0.00 0.00 0.00 64 1015.1
20260502032326 62 6 4.0 6.0 0.00 0.00 0.00 64 1014.8
20260502031824 62 232 1.0 4.0 0.00 0.00 0.00 64 1014.9
20260502031322 62 0 0.0 2.0 0.00 0.00 0.00 64 1015.1
20260502030820 62 89 0.0 2.0 0.00 0.00 0.00 64 1015.1
20260502030318 62 309 0.0 2.0 0.00 0.00 0.00 65 1015.1
20260502025815 62 17 0.0 2.0 0.00 0.00 0.00 64 1015.2
20260502025313 62 324 1.0 4.0 0.00 0.00 0.00 64 1015.1
20260502024810 62 25 2.0 4.0 0.00 0.00 0.00 63 1015.0
20260502024308 62 9 2.0 2.0 0.00 0.00 0.00 63 1014.9
20260502023806 62 331 2.0 4.0 0.00 0.00 0.00 63 1014.9
20260502023303 62 326 1.0 5.0 0.00 0.00 0.00 62 1014.8
20260502022800 62 32 1.0 4.0 0.00 0.00 0.00 60 1014.8
20260502022257 63 343 2.0 4.0 0.00 0.00 0.00 59 1015.1
20260502021754 63 357 2.0 4.0 0.00 0.00 0.00 58 1014.7
20260502021251 63 65 1.0 5.0 0.00 0.00 0.00 57 1014.8
20260502020748 63 15 2.0 6.0 0.00 0.00 0.00 57 1014.7
20260502020246 63 332 2.0 5.0 0.00 0.00 0.00 56 1014.8
20260502015743 63 348 5.0 5.0 0.00 0.00 0.00 54 1014.8
20260502015239 63 348 4.0 5.0 0.00 0.00 0.00 52 1014.7
20260502014737 63 355 3.0 4.0 0.00 0.00 0.00 54 1014.8
20260502014233 63 321 4.0 5.0 0.00 0.00 0.00 54 1015.0
20260502013730 63 8 1.0 5.0 0.00 0.00 0.00 54 1014.9
20260502013225 64 349 4.0 4.0 0.00 0.00 0.00 52 1014.8
20260502012722 64 340 3.0 3.0 0.00 0.00 0.00 52 1014.8
20260502012220 65 359 2.0 4.0 0.00 0.00 0.00 49 1015.0
20260502011717 65 202 0.0 4.0 0.00 0.00 0.00 50 1015.0
20260502011213 65 342 3.0 4.0 0.00 0.00 0.00 50 1015.0
20260502010711 65 311 1.0 4.0 0.00 0.00 0.00 52 1014.9
20260502010207 65 338 2.0 4.0 0.00 0.00 0.00 52 1015.0
20260502005704 66 3 4.0 6.0 0.00 0.00 0.00 50 1015.2
20260502005202 66 86 3.0 6.0 0.00 0.00 0.00 49 1015.0
20260502004658 67 324 2.0 4.0 0.00 0.00 0.00 51 1015.1
20260502004154 66 15 3.0 8.0 0.00 0.00 0.00 49 1015.1
20260502003652 66 306 2.0 4.0 0.00 0.00 0.00 50 1015.0
20260502003149 66 296 0.0 4.0 0.00 0.00 0.00 50 1015.1
20260502002645 66 16 3.0 4.0 0.00 0.00 0.00 51 1015.3
20260502002143 64 33 4.0 5.0 0.00 0.00 0.00 52 1015.2
20260502001640 64 347 3.0 7.0 0.00 0.00 0.00 52 1015.1
20260502001138 65 332 4.0 5.0 0.00 0.00 0.00 51 1015.4
20260502000635 64 14 2.0 4.0 0.00 0.00 0.00 53 1015.2
20260502000133 65 2 2.0 6.0 0.00 0.00 0.00 51 1015.3
20260501235629 65 327 2.0 6.0 0.00 0.00 0.00 52 1015.2
20260501235125 66 348 4.0 6.0 0.00 0.00 0.00 53 1015.1
20260501234620 67 12 4.0 8.0 0.00 0.00 0.00 53 1015.1
20260501234118 66 353 4.0 5.0 0.00 0.00 0.00 55 1015.3
20260501233616 66 269 0.0 6.0 0.00 0.00 0.00 54 1015.2
20260501233113 65 359 4.0 4.0 0.00 0.00 0.00 55 1015.4
20260501232609 66 7 3.0 4.0 0.00 0.00 0.00 54 1015.4